DateTimeUTC,F1_A11,F1_S11,BsB_S11,BsG_S11,BsR_S11,BbsB_S11,BbsG_S11,BbsR_S11,BaB_A11,BaG_A11,BaR_A11,Tu_S11,T_S11,Uu_S11,U_S11,P_S11,T1_A11
2021-07-25T21:00:00Z,00000200,20000000,,,,,,,-000.22,-000.25,0000.19,19.9,26.6,07.2,04.8,0672.6,31.2
2021-07-25T21:01:00Z,00000200,20000000,,,,,,,-000.14,0000.11,-000.45,19.9,26.6,07.1,04.7,0672.6,31.2
2021-07-25T21:02:00Z,00000200,20000000,,,,,,,0000.04,-000.09,-000.07,19.9,26.6,06.9,04.6,0672.6,31.2
2021-07-25T21:03:00Z,00000200,60000000,,,,,,,-000.10,-000.06,0000.12,19.9,26.6,06.9,04.6,0672.6,31.2
2021-07-25T21:04:00Z,00000200,40000000,0000.22,0000.28,0000.31,-000.41,0000.04,-000.10,0000.08,0000.08,-000.11,20.0,26.4,06.8,04.7,0673.5,31.2
2021-07-25T21:05:00Z,00000200,00000000,0000.30,0000.18,0000.09,-000.34,-000.02,0000.18,0000.05,0000.12,0000.34,20.0,26.3,06.9,04.7,0673.6,31.2
2021-07-25T21:06:00Z,00000200,00000000,-000.12,-000.20,0000.29,-000.28,0000.23,-000.17,-000.15,0000.19,-000.12,20.0,26.3,06.9,04.7,0673.6,31.2
2021-07-25T21:07:00Z,00000200,00000000,0000.46,0000.26,0000.33,0000.16,-000.06,-000.08,0000.16,-000.14,-000.01,20.0,26.3,06.9,04.7,0673.6,31.2
2021-07-25T21:08:00Z,00000200,00000000,-000.22,0000.35,0000.30,0000.64,0000.17,-000.13,-000.32,-000.03,-000.03,20.1,26.3,06.8,04.6,0673.7,31.2
2021-07-25T21:09:00Z,00000200,00000000,0000.32,0000.61,0000.01,-000.09,0000.03,-000.29,0000.26,0000.19,0000.22,20.0,26.3,06.7,04.6,0673.7,31.2
2021-07-25T21:10:00Z,00000200,00000000,0000.11,0000.23,0000.32,0000.09,0000.09,0000.18,-000.09,-000.14,-000.21,20.0,26.3,06.8,04.6,0673.6,31.2
2021-07-25T21:11:00Z,00000200,00000000,0000.35,0000.22,0000.05,0000.10,0000.00,-000.28,0000.09,0000.02,-000.03,20.0,26.3,06.8,04.6,0673.6,31.2
2021-07-25T21:12:00Z,00000200,00000000,0000.59,0000.12,0000.16,-000.84,-000.01,0000.03,0000.42,0000.09,0000.32,20.0,26.3,06.7,04.6,0673.7,31.2
2021-07-25T21:13:00Z,00000200,00000000,-000.21,0000.43,0000.14,-000.30,-000.01,0000.07,-000.31,-000.03,-000.39,20.0,26.3,06.7,04.6,0673.6,31.2
2021-07-25T21:14:00Z,00000200,00000000,0000.22,0000.34,0000.17,-000.21,-000.20,0000.09,0000.00,-000.13,0000.14,20.0,26.3,06.7,04.6,0673.7,31.2
2021-07-25T21:15:00Z,00000200,00000000,-000.45,-000.05,0000.09,-000.10,-000.05,0000.22,-000.06,-000.16,0000.01,20.0,26.3,06.6,04.5,0673.6,31.2
2021-07-25T21:16:00Z,00000200,00000000,0000.19,0000.25,0000.22,-000.63,0000.20,0000.19,-000.09,0000.39,-000.03,20.0,26.3,06.7,04.6,0673.6,31.2
2021-07-25T21:17:00Z,00000200,00000000,-000.19,0000.12,0000.18,0000.02,0000.04,-000.04,0000.06,-000.06,-000.40,20.0,26.3,06.6,04.5,0673.7,31.2
2021-07-25T21:18:00Z,00000200,00000000,0000.13,0000.25,0000.12,-000.12,-000.15,0000.02,0000.10,-000.32,0000.46,20.0,26.3,06.5,04.5,0673.6,31.2
2021-07-25T21:19:00Z,00000200,00000000,0000.01,0000.18,0000.25,-000.38,-000.17,-000.26,-000.23,0000.06,-000.18,20.0,26.2,06.4,04.4,0673.7,31.2
2021-07-25T21:20:00Z,00000200,00000000,0000.27,-000.06,0000.28,0000.15,-000.15,0000.21,0000.30,-000.12,0000.08,20.0,26.3,06.4,04.4,0673.7,31.2
2021-07-25T21:21:00Z,00000200,00000000,0000.65,-000.09,-000.08,0000.24,0000.19,-000.19,-000.20,0000.09,0000.03,20.0,26.3,06.4,04.4,0673.7,31.2
2021-07-25T21:22:00Z,00000200,00000000,-000.12,0000.01,0000.28,0000.07,0000.24,0000.08,0000.07,0000.15,-000.09,20.0,26.3,06.4,04.4,0673.7,31.2
2021-07-25T21:23:00Z,00000200,00000000,0001.39,0000.16,0000.05,-000.36,0000.03,-000.11,0000.21,-000.19,0000.14,20.0,26.3,06.4,04.4,0673.7,31.2
2021-07-25T21:24:00Z,00000200,00000000,-000.25,0000.23,0000.20,-000.54,-000.22,-000.07,-000.07,0000.38,-000.21,20.0,26.3,06.4,04.4,0673.8,31.2
2021-07-25T21:25:00Z,00000200,00000000,0000.83,0000.16,-000.07,-000.25,0000.44,-000.08,-000.09,-000.16,0000.33,20.0,26.2,06.3,04.3,0673.8,31.2
2021-07-25T21:26:00Z,00000200,00000000,0000.40,-000.13,-000.14,-000.32,0000.04,-000.04,0000.00,-000.08,-000.30,20.0,26.3,06.2,04.3,0673.8,31.2
2021-07-25T21:27:00Z,00000200,00000000,0000.30,0000.15,-000.12,0000.01,-000.30,-000.33,-000.05,0000.24,0000.31,20.0,26.2,06.3,04.3,0673.8,31.2
2021-07-25T21:28:00Z,00000200,00000000,0000.62,0000.49,-000.04,-000.01,-000.10,-000.05,0000.08,0000.08,-000.06,20.0,26.2,06.3,04.3,0673.8,31.2
2021-07-25T21:29:00Z,00000200,00000000,0000.68,0000.16,0000.39,0000.18,0000.10,0000.49,0000.23,-000.13,-000.28,20.0,26.2,06.2,04.2,0673.8,31.2
2021-07-25T21:30:00Z,00000200,00000000,0000.67,0000.28,0000.45,-000.29,-000.13,0000.43,-000.05,0000.21,0000.35,20.0,26.2,06.2,04.2,0673.8,31.2
2021-07-25T21:31:00Z,00000200,00000000,0000.25,-000.18,0000.44,0000.03,-000.05,-000.30,0000.09,0000.11,-000.04,20.0,26.2,06.3,04.3,0673.8,31.2
2021-07-25T21:32:00Z,00000200,00000000,0000.00,0000.36,0000.33,0000.77,0000.01,0000.09,0000.08,0000.07,0000.06,20.0,26.2,06.2,04.3,0673.8,31.2
2021-07-25T21:33:00Z,00000200,00000000,0000.17,-000.20,0000.29,-000.47,-000.06,-000.24,-000.01,-000.19,-000.12,20.0,26.2,06.3,04.3,0673.8,31.2
2021-07-25T21:34:00Z,00000200,00000000,0000.71,0000.21,0000.23,-000.47,-000.10,-000.01,-000.09,0000.00,-000.12,20.0,26.2,06.2,04.3,0673.8,31.2
2021-07-25T21:35:00Z,00000200,00000000,-000.05,-000.20,0000.04,0000.01,-000.19,0000.03,0000.30,0000.25,0000.11,20.0,26.2,06.2,04.3,0673.8,31.2
2021-07-25T21:36:00Z,00000200,00000000,0000.67,-000.27,0000.32,-000.61,-000.13,-000.14,0000.05,-000.34,0000.33,20.0,26.2,06.3,04.3,0673.8,31.2
2021-07-25T21:37:00Z,00000200,00000000,-000.38,-000.00,0000.35,0000.16,0000.01,-000.12,-000.17,-000.10,-000.33,19.9,26.2,06.3,04.3,0673.8,31.2
2021-07-25T21:38:00Z,00000200,00000000,0000.34,0000.12,0000.17,-000.01,-000.03,-000.05,0000.11,0000.22,0000.28,19.9,26.2,06.2,04.3,0673.8,31.2
2021-07-25T21:39:00Z,00000200,00000000,0000.30,-000.21,0000.37,0000.17,-000.22,0000.14,0000.09,0000.15,-000.22,19.9,26.2,06.2,04.2,0673.8,31.2
2021-07-25T21:40:00Z,00000200,00000000,0000.52,0000.25,0000.39,-000.05,-000.00,0000.03,-000.04,-000.28,-000.10,19.9,26.2,06.2,04.2,0673.8,31.2
2021-07-25T21:41:00Z,00000200,00000000,0000.02,0000.32,0000.25,-000.32,-000.04,-000.17,0000.04,0000.21,0000.29,19.9,26.2,06.1,04.2,0673.8,31.2
2021-07-25T21:42:00Z,00000200,00000000,0000.23,0000.09,0000.35,0000.17,-000.21,-000.12,0000.02,0000.04,-000.43,19.9,26.2,06.0,04.1,0673.9,31.2
2021-07-25T21:43:00Z,00000200,00000000,0000.33,0000.09,-000.01,-000.16,-000.19,-000.17,-000.09,-000.19,0000.08,19.9,26.2,06.0,04.1,0673.9,31.2
2021-07-25T21:44:00Z,00000200,00000000,0000.23,0000.24,0000.41,-000.34,-000.29,0000.02,0000.23,0000.30,0000.37,19.9,26.2,06.0,04.1,0673.9,31.2
2021-07-25T21:45:00Z,00000200,00000000,0000.68,0000.32,-000.02,0000.02,-000.07,-000.39,-000.02,0000.37,0000.14,19.9,26.2,06.0,04.1,0673.9,31.2
2021-07-25T21:46:00Z,00000200,00000000,0000.35,0000.04,-000.04,0000.08,-000.01,0000.13,-000.03,-000.21,-000.29,19.9,26.2,05.9,04.0,0673.9,31.2
2021-07-25T21:47:00Z,00000200,00000000,-000.05,0000.45,0000.01,0000.10,-000.22,-000.07,0000.22,0000.05,0000.16,19.9,26.2,06.0,04.1,0673.9,31.2
2021-07-25T21:48:00Z,00000200,00000000,0000.05,0000.03,0000.08,0000.38,-000.08,-000.10,-000.31,0000.03,-000.15,19.9,26.1,05.9,04.0,0673.9,31.2
2021-07-25T21:49:00Z,00000200,00000000,0000.10,0000.13,0000.36,-000.16,0000.07,-000.23,0000.35,-000.00,0000.16,19.9,26.2,05.9,04.1,0673.9,31.2
2021-07-25T21:50:00Z,00000200,00000000,0000.41,0000.14,0000.03,0000.34,-000.06,0000.23,0000.23,-000.04,0000.12,19.9,26.1,06.1,04.2,0673.9,31.2
2021-07-25T21:51:00Z,00000200,00000000,0000.35,0000.24,-000.25,0000.28,0000.11,-000.23,-000.15,0000.46,-000.34,19.9,26.2,06.1,04.1,0673.9,31.2
2021-07-25T21:52:00Z,00000200,00000000,0000.26,0000.22,0000.28,0000.18,0000.06,0000.25,0000.05,-000.05,0000.51,19.9,26.2,06.2,04.2,0673.9,31.2
2021-07-25T21:53:00Z,00000200,00000000,0000.35,-000.06,0000.28,0000.27,0000.18,-000.17,0000.18,0000.15,-000.23,19.9,26.1,06.1,04.2,0673.9,31.2
2021-07-25T21:54:00Z,00000200,00000000,-000.20,-000.15,0000.28,0000.35,-000.21,0000.16,0000.05,-000.40,0000.23,19.9,26.1,06.1,04.2,0673.9,31.2
2021-07-25T21:55:00Z,00000200,00000000,0000.37,0000.45,0000.11,-000.17,0000.02,-000.27,-000.12,0000.17,0000.10,19.9,26.1,06.0,04.1,0674.0,31.2
2021-07-25T21:56:00Z,00000200,00000000,-000.12,-000.01,0000.05,-000.20,-000.06,-000.39,0000.25,-000.07,0000.17,19.9,26.1,06.1,04.1,0674.0,31.2
2021-07-25T21:57:00Z,00000200,40000000,,,,,,,0000.28,0000.62,0000.37,19.9,26.2,05.7,03.9,0673.9,31.2
2021-07-25T21:58:00Z,00000200,60000000,,,,,,,-000.51,-000.55,-000.68,19.6,26.3,06.2,04.1,0673.0,31.2
2021-07-25T21:59:00Z,00000200,20000000,,,,,,,0000.00,-000.13,-000.19,19.6,26.4,06.1,04.1,0673.0,31.2
